"2010-07-30 00:00:00",26221,9.53,324.3,0.475,0.063,21,108.6836,21.51,22.36,50.48,0,110.9,13.22,22.34,286.3
"2010-07-30 00:00:30",26222,9.41,323.7,0.586,0.075,21.02,108.6812,21.51,22.39,50.23,0,110.9,13.23,22.33,285.7
"2010-07-30 00:01:00",26223,9.26,322.7,0.576,0.071,20.84,108.6946,21.54,22.39,49.78,0,110.9,13.23,22.37,284.7
"2010-07-30 00:01:30",26224,9.21,323.5,0.683,0.071,20.87,108.711,21.58,22.41,49.54,0,110.9,13.23,22.41,285.5
"2010-07-30 00:02:00",26225,9.09,322.9,1.044,0.03,20.94,108.7143,21.59,22.43,49.2,0,110.9,13.23,22.42,284.9
"2010-07-30 00:02:30",26226,8.98,320.7,1.026,0.073,20.91,108.7143,21.59,22.46,48.28,0,110.9,13.23,22.42,282.7
"2010-07-30 00:03:00",26227,8.79,321.1,0.756,0.066,20.84,108.7158,21.6,22.47,48.47,0,110.9,13.23,22.42,283.1
"2010-07-30 00:03:30",26228,8.77,321.4,0.896,0.096,20.93,108.7266,21.62,22.48,48.58,0,110.9,13.23,22.45,283.4
"2010-07-30 00:04:00",26229,8.67,318.6,1.552,0.109,20.99,108.743,21.67,22.51,48.44,0,110.9,13.23,22.49,280.6
"2010-07-30 00:04:30",26230,8.5,319.5,1.376,0.102,21.07,108.745,21.67,22.52,48.44,0,110.9,13.22,22.50,281.5
"2010-07-30 00:05:00",26231,8.47,320.3,1.225,0.089,21.08,108.7447,21.67,22.53,48.48,0,110.9,13.23,22.50,282.3
"2010-07-30 00:05:30",26232,8.42,320.7,0.455,0.053,21.17,108.7484,21.68,22.54,48.5,0,110.9,13.23,22.51,282.7
"2010-07-30 00:06:00",26233,8.29,320.5,0.601,0.129,21.07,108.7638,21.72,22.56,48.56,0,110.9,13.23,22.55,282.5
"2010-07-30 00:06:30",26234,8.08,319.8,0.58,0.052,21.09,108.7756,21.75,22.58,48.88,0,110.9,13.23,22.58,281.8
"2010-07-30 00:07:00",26235,7.98,320.1,0.566,0.072,21.11,108.7778,21.76,22.6,49.49,0,110.9,13.23,22.58,282.1
"2010-07-30 00:07:30",26236,7.921,320.3,0.822,0.055,21.1,108.7778,21.76,22.61,49.88,0,110.9,13.23,22.58,282.3
"2010-07-30 00:08:00",26237,7.643,320.5,0.378,0.094,21.02,108.7778,21.76,22.62,49.87,0,110.9,13.23,22.58,282.5
"2010-07-30 00:08:30",26238,7.554,321.3,0.658,0.043,21.07,108.7778,21.76,22.64,49.68,0,110.9,13.23,22.58,283.3
"2010-07-30 00:09:00",26239,7.376,321.9,0.548,0.048,20.91,108.7778,21.76,22.64,49.59,0,110.9,13.23,22.58,283.9
"2010-07-30 00:09:30",26240,7.713,322.1,0.382,0.082,21.11,108.7778,21.76,22.64,49.82,0,110.9,13.23,22.58,284.1
"2010-07-30 00:10:00",26241,7.738,322.3,0.662,0.071,21.13,108.7778,21.76,22.64,49.79,0,110.9,13.23,22.58,284.3
"2010-07-30 00:10:30",26242,7.75,324.2,1.365,0.083,21.15,108.7778,21.76,22.65,49.52,0,110.9,13.23,22.58,286.2
"2010-07-30 00:11:00",26243,7.696,325.2,1.396,0.127,21.18,108.7781,21.76,22.63,49.11,0,110.9,13.23,22.58,287.2
"2010-07-30 00:11:30",26244,7.828,325.1,1.056,0.124,21.16,108.7832,21.77,22.66,49.14,0,110.9,13.23,22.60,287.1
"2010-07-30 00:12:00",26245,8.18,323.7,1.068,0.199,21.21,108.7998,21.81,22.67,48.96,0,110.9,13.23,22.64,285.7
"2010-07-30 00:12:30",26246,8.03,322.4,1.096,0.179,21.19,108.8116,21.84,22.68,48.98,0,110.9,13.23,22.67,284.4
"2010-07-30 00:13:00",26247,7.87,322.9,1.271,0.164,21.16,108.8116,21.84,22.7,49.13,0,110.9,13.23,22.67,284.9
"2010-07-30 00:13:30",26248,8.04,322.2,1.048,0.299,21.18,108.8116,21.84,22.71,48.91,0,110.9,13.23,22.67,284.2
"2010-07-30 00:14:00",26249,8.18,323.4,0.958,0.204,21.17,108.8116,21.84,22.71,48.55,0,110.9,13.23,22.67,285.4
"2010-07-30 00:14:30",26250,7.966,322.3,0.956,0.135,21.13,108.8116,21.84,22.72,48.72,0,110.9,13.22,22.67,284.3
"2010-07-30 00:15:00",26251,8.14,322.4,0.989,0.136,21.12,108.8127,21.85,22.72,48.45,0,110.9,13.23,22.67,284.4
"2010-07-30 00:15:30",26252,8.02,323.2,1.035,0.152,21.14,108.8147,21.85,22.73,48.23,0,110.9,13.23,22.68,285.2
"2010-07-30 00:16:00",26253,8.06,322.8,1.025,0.106,21.13,108.8158,21.85,22.75,48.2,0,110.9,13.23,22.68,284.8
"2010-07-30 00:16:30",26254,8.03,324.8,1.029,0.17,21.12,108.8198,21.86,22.74,47.83,0,110.9,13.23,22.69,286.8
"2010-07-30 00:17:00",26255,8.18,325.1,0.793,0.119,21.19,108.8231,21.87,22.76,47.55,0,110.9,13.23,22.70,287.1
"2010-07-30 00:17:30",26256,8.43,325,0.834,0.248,21.13,108.831,21.89,22.75,47.64,0,110.9,13.23,22.72,287.0
"2010-07-30 00:18:00",26257,8.65,327.8,1.118,0.147,21.06,108.8378,21.91,22.77,46.77,0,110.9,13.23,22.74,289.8
"2010-07-30 00:18:30",26258,8.51,327.8,1.287,0.158,21.15,108.8426,21.92,22.77,46.3,0,110.9,13.23,22.75,289.8
"2010-07-30 00:19:00",26259,8.05,327.9,1.163,0.123,21.09,108.8442,21.93,22.76,46.74,0,110.9,13.23,22.75,289.9
"2010-07-30 00:19:30",26260,8.25,329.9,1.056,0.11,21.06,108.8442,21.93,22.77,46.21,0,110.9,13.22,22.75,291.9
"2010-07-30 00:20:00",26261,8.39,330.9,1.506,0.114,21.06,108.8434,21.92,22.77,46.29,0,110.9,13.23,22.75,292.9
"2010-07-30 00:20:30",26262,8.35,330.7,1.634,0.147,21.04,108.8383,21.91,22.77,46.49,0,110.9,13.23,22.74,292.7
"2010-07-30 00:21:00",26263,8.02,327.5,2.032,0.283,21.06,108.8217,21.87,22.77,47.27,0,110.9,13.23,22.70,289.5
"2010-07-30 00:21:30",26264,8.15,329.6,0.777,0.202,21.05,108.8172,21.86,22.77,46.68,0,110.9,13.23,22.69,291.6
"2010-07-30 00:22:00",26265,8.33,329.4,0.915,0.163,21.05,108.8116,21.84,22.76,46.41,0,110.9,13.23,22.67,291.4
"2010-07-30 00:22:30",26266,8.13,329.2,0.921,0.147,20.97,108.8116,21.84,22.74,46.88,0,110.9,13.23,22.67,291.2
"2010-07-30 00:23:00",26267,8.27,329.3,0.611,0.142,21.01,108.8116,21.84,22.73,46.73,0,110.9,13.23,22.67,291.3
"2010-07-30 00:23:30",26268,8.24,328.1,0.763,0.144,21.02,108.8116,21.84,22.74,47.2,0,110.9,13.23,22.67,290.1
"2010-07-30 00:24:00",26269,8.16,327.4,0.968,0.137,20.94,108.8116,21.84,22.72,47.12,0,110.9,13.23,22.67,289.4
"2010-07-30 00:24:30",26270,8.18,327.4,1.138,0.109,20.88,108.8116,21.84,22.71,47.41,0,110.9,13.22,22.67,289.4
"2010-07-30 00:25:00",26271,7.897,326.8,1.852,0.2,20.96,108.8108,21.84,22.72,47.34,0,110.9,13.23,22.67,288.8
"2010-07-30 00:25:30",26272,7.721,327.6,0.729,0.18,21.04,108.8113,21.84,22.71,47.09,0,110.9,13.23,22.67,289.6
"2010-07-30 00:26:00",26273,7.54,328.6,0.832,0.194,21.05,108.8111,21.84,22.71,46.85,0,110.9,13.23,22.67,290.6
"2010-07-30 00:26:30",26274,7.667,329.3,1.109,0.124,21.06,108.8113,21.84,22.71,46.68,0,110.9,13.23,22.67,291.3
"2010-07-30 00:27:00",26275,7.564,330.3,1.168,0.111,21.1,108.8116,21.84,22.71,45.89,0,110.9,13.23,22.67,292.3
"2010-07-30 00:27:30",26276,7.344,330,0.869,0.135,20.97,108.8116,21.84,22.7,46.61,0,110.9,13.22,22.67,292.0
"2010-07-30 00:28:00",26277,7.421,330.7,0.745,0.137,21,108.8116,21.84,22.71,46.5,0,110.9,13.22,22.67,292.7
"2010-07-30 00:28:30",26278,7.597,332.4,1.289,0.156,21.08,108.8116,21.84,22.71,46.37,0,110.9,13.22,22.67,294.4
"2010-07-30 00:29:00",26279,7.644,333.5,0.625,0.081,21.19,108.8116,21.84,22.72,44.81,0,110.9,13.22,22.67,295.5
"2010-07-30 00:29:30",26280,7.342,333.7,0.299,0.161,21.21,108.8133,21.85,22.72,44.56,0,110.9,13.22,22.67,295.7
"2010-07-30 00:30:00",26281,7,333.3,0.486,0.14,21.23,108.8378,21.91,22.73,43.78,0,110.9,13.22,22.74,295.3
"2010-07-30 00:30:30",26282,6.769,333.3,0.431,0.087,21.32,108.8462,21.93,22.77,43.38,0,110.9,13.22,22.76,295.3
"2010-07-30 00:31:00",26283,6.946,333.6,0.594,0.266,21.26,108.8727,22,22.79,43.27,0,110.9,13.22,22.83,295.6
"2010-07-30 00:31:30",26284,6.994,333.6,0.855,0.228,21.27,108.8794,22.02,22.82,43.38,0,110.9,13.22,22.85,295.6
"2010-07-30 00:32:00",26285,6.687,334.4,0.872,0.115,21.26,108.8977,22.06,22.85,43.15,0,110.9,13.22,22.89,296.4
"2010-07-30 00:32:30",26286,6.523,335.5,0.486,0.029,21.46,108.9132,22.1,22.87,42.43,0,110.9,13.22,22.93,297.5
"2010-07-30 00:33:00",26287,6.566,337,1.029,0.059,21.25,108.9309,22.15,22.91,42.63,0,110.9,13.22,22.98,299.0
"2010-07-30 00:33:30",26288,6.409,337.8,0.591,0.088,21.28,108.946,22.19,22.94,42.51,0,110.9,13.22,23.02,299.8
"2010-07-30 00:34:00",26289,6.374,337.1,0.473,0.039,21.37,108.9481,22.19,22.97,42.03,0,110.9,13.22,23.02,299.1
"2010-07-30 00:34:30",26290,6.29,337.4,0.859,0.06,21.3,108.9742,22.26,23,41.82,0,110.9,13.22,23.09,299.4
"2010-07-30 00:35:00",26291,6.155,338.7,0.395,0.05,21.25,108.9804,22.28,23.03,41.66,0,110.9,13.22,23.11,300.7
"2010-07-30 00:35:30",26292,6.255,340.3,0.712,0.112,21.36,108.9857,22.29,23.06,41.43,0,110.9,13.23,23.12,302.3
"2010-07-30 00:36:00",26293,6.224,341,0.851,0.06,21.34,109.0094,22.35,23.08,41.34,0,110.9,13.23,23.18,303.0
"2010-07-30 00:36:30",26294,6.116,341,1.424,0.094,21.4,109.0142,22.36,23.12,41.25,0,110.9,13.23,23.19,303.0
"2010-07-30 00:37:00",26295,6.118,340.9,0.606,0.106,21.39,109.0254,22.39,23.14,41.11,0,110.9,13.22,23.22,302.9
"2010-07-30 00:37:30",26296,6.275,340.1,0.56,0.059,21.35,109.0453,22.44,23.17,41.29,0,110.9,13.23,23.27,302.1
"2010-07-30 00:38:00",26297,6.152,338.4,0.645,0.046,21.3,109.0467,22.45,23.21,41.14,0,110.9,13.23,23.28,300.4
"2010-07-30 00:38:30",26298,6.307,338,0.597,0.086,21.32,109.0467,22.45,23.22,41.47,0,110.9,13.23,23.28,300.0
"2010-07-30 00:39:00",26299,6.605,337.3,0.948,0.184,21.32,109.0458,22.44,23.23,41.63,0,110.9,13.22,23.27,299.3
"2010-07-30 00:39:30",26300,6.73,337.7,1.282,0.084,21.34,109.0443,22.44,23.24,41.86,0,110.9,13.22,23.27,299.7
"2010-07-30 00:40:00",26301,6.788,338.5,1.283,0.084,21.41,109.0444,22.44,23.26,41.74,0,110.9,13.23,23.27,300.5
"2010-07-30 00:40:30",26302,6.695,339.1,1.452,0.173,21.45,109.0531,22.46,23.27,41.57,0,110.9,13.22,23.29,301.1
"2010-07-30 00:41:00",26303,6.598,339.1,1.25,0.136,21.46,109.0718,22.51,23.29,41.49,0,110.9,13.22,23.34,301.1
"2010-07-30 00:41:30",26304,6.523,341,1.441,0.189,21.44,109.0737,22.52,23.32,41.67,0,110.9,13.23,23.35,303.0
"2010-07-30 00:42:00",26305,6.496,340.7,1.111,0.215,21.44,109.0728,22.51,23.33,41.34,0,110.9,13.22,23.34,302.7
"2010-07-30 00:42:30",26306,6.685,340.7,0.849,0.12,21.47,109.0768,22.52,23.34,41.76,0,110.9,13.22,23.35,302.7
"2010-07-30 00:43:00",26307,6.677,340.7,0.917,0.126,21.47,109.0807,22.53,23.36,41.64,0,110.9,13.22,23.36,302.7
"2010-07-30 00:43:30",26308,6.675,342.1,1.093,0.127,21.51,109.0924,22.56,23.38,41.63,0,110.9,13.22,23.39,304.1
"2010-07-30 00:44:00",26309,6.467,342.7,1.244,0.107,21.47,109.1057,22.6,23.38,41.64,0,110.9,13.22,23.43,304.7
"2010-07-30 00:44:30",26310,6.519,344.5,0.669,0.183,21.5,109.1062,22.6,23.39,41.65,0,110.9,13.22,23.43,306.5
"2010-07-30 00:45:00",26311,6.968,344.7,0.843,0.077,21.53,109.1066,22.6,23.41,41.77,0,110.9,13.22,23.43,306.7
"2010-07-30 00:45:30",26312,6.919,343.8,1.195,0.184,21.42,109.1059,22.6,23.41,42.2,0,110.9,13.22,23.43,305.8
"2010-07-30 00:46:00",26313,6.537,343.8,1.199,0.299,21.39,109.1062,22.6,23.42,42.36,0,110.9,13.22,23.43,305.8
"2010-07-30 00:46:30",26314,6.726,343.7,1.241,0.103,21.51,109.1039,22.59,23.4,42.24,0,110.9,13.22,23.42,305.7
"2010-07-30 00:47:00",26315,6.526,343.4,1.327,0.112,21.56,109.1056,22.6,23.43,41.69,0,110.9,13.22,23.43,305.4
"2010-07-30 00:47:30",26316,6.452,344.8,0.839,0.125,21.56,109.1062,22.6,23.42,41.51,0,110.9,13.22,23.43,306.8
"2010-07-30 00:48:00",26317,6.379,344.4,0.941,0.098,21.52,109.1041,22.59,23.44,41.38,0,110.9,13.22,23.42,306.4
"2010-07-30 00:48:30",26318,6.107,343.6,1.2,0.153,21.57,109.1051,22.6,23.45,41.21,0,110.9,13.22,23.43,305.6
"2010-07-30 00:49:00",26319,5.88,346.3,1.177,0.1,21.6,109.1181,22.63,23.46,41,0,110.9,13.22,23.46,308.3
"2010-07-30 00:49:30",26320,6.204,345,0.975,0.108,21.59,109.1373,22.68,23.49,41.06,0,110.9,13.22,23.51,307.0
"2010-07-30 00:50:00",26321,5.945,345.9,1.279,0.26,21.59,109.1372,22.68,23.49,40.93,0,110.9,13.22,23.51,307.9
"2010-07-30 00:50:30",26322,6.21,346,0.913,0.056,21.56,109.1333,22.67,23.5,40.88,0,110.9,13.22,23.50,308.0
"2010-07-30 00:51:00",26323,6.41,347.6,0.737,0.164,21.56,109.1327,22.67,23.51,41.26,0,110.9,13.22,23.50,309.6
"2010-07-30 00:51:30",26324,5.964,348.4,1.514,0.254,21.62,109.1341,22.67,23.53,40.94,0,110.9,13.22,23.50,310.4
"2010-07-30 00:52:00",26325,5.869,346.6,2.239,0.201,21.58,109.1532,22.72,23.53,40.85,0,110.9,13.22,23.55,308.6
"2010-07-30 00:52:30",26326,5.548,347.5,1.882,0.262,21.65,109.1541,22.72,23.55,40.45,0,110.9,13.22,23.55,309.5
"2010-07-30 00:53:00",26327,5.869,347.5,1.039,0.25,21.66,109.1569,22.73,23.57,40.35,0,110.9,13.22,23.56,309.5
"2010-07-30 00:53:30",26328,5.996,347.5,1.4,0.13,21.64,109.152,22.72,23.57,40.44,0,110.9,13.22,23.55,309.5
"2010-07-30 00:54:00",26329,6.058,348.3,1.172,0.143,21.57,109.1504,22.71,23.59,40.8,0,110.9,13.22,23.54,310.3
"2010-07-30 00:54:30",26330,5.768,348.9,1.553,0.233,21.63,109.1531,22.72,23.61,40.27,0,110.9,13.22,23.55,310.9
"2010-07-30 00:55:00",26331,5.879,348.6,1.59,0.154,21.65,109.1619,22.74,23.6,40.21,0,110.9,13.22,23.57,310.6
"2010-07-30 00:55:30",26332,5.468,350.8,1.416,0.306,21.61,109.1774,22.78,23.63,40.09,0,110.9,13.22,23.61,312.8
"2010-07-30 00:56:00",26333,5.309,351.7,1.437,0.325,21.6,109.1821,22.79,23.63,40.02,0,110.9,13.22,23.63,313.7
"2010-07-30 00:56:30",26334,4.185,355.1,3.122,0.648,21.6,109.1817,22.79,23.64,39.63,0,110.9,13.22,23.62,317.1
"2010-07-30 00:57:00",26335,5.042,351.8,2.328,0.56,21.6,109.1811,22.79,23.64,39.78,0,110.9,13.22,23.62,313.8
"2010-07-30 00:57:30",26336,4.656,353.5,3.554,0.54,21.65,109.1808,22.79,23.66,39.53,0,110.9,13.22,23.62,315.5
"2010-07-30 00:58:00",26337,5.195,351,2.317,0.5,21.62,109.1811,22.79,23.68,39.76,0,110.9,13.22,23.62,313.0
"2010-07-30 00:58:30",26338,4.727,352.4,2.025,0.402,21.65,109.1842,22.8,23.7,39.59,0,110.9,13.22,23.63,314.4
"2010-07-30 00:59:00",26339,5.802,349.9,1.634,0.384,21.65,109.1923,22.82,23.69,40.01,0,110.9,13.22,23.65,311.9
"2010-07-30 00:59:30",26340,5.284,351.4,2.106,0.545,21.65,109.2024,22.85,23.69,39.83,0,110.9,13.22,23.68,313.4
"2010-07-30 01:00:00",26341,4.923,353.4,3.068,0.854,21.65,109.2092,22.86,23.71,39.85,0,110.9,13.22,23.69,315.4
"2010-07-30 01:00:30",26342,5.333,351.3,1.883,0.474,21.68,109.2131,22.87,23.72,39.67,0,110.9,13.22,23.71,313.3
"2010-07-30 01:01:00",26343,4.388,355.5,4.741,0.926,21.67,109.2136,22.87,23.73,39.63,0,110.9,13.22,23.71,317.5
"2010-07-30 01:01:30",26344,3.689,359,3.811,0.672,21.65,109.2136,22.87,23.75,39.39,0,110.9,13.22,23.71,321.0
"2010-07-30 01:02:00",26345,4.053,356.2,2.74,0.518,21.65,109.2136,22.87,23.74,39.57,0,110.9,13.22,23.71,318.2
"2010-07-30 01:02:30",26346,3.789,356.9,2.933,0.53,21.66,109.2136,22.87,23.75,39.32,0,110.9,13.21,23.71,318.9
"2010-07-30 01:03:00",26347,4.295,354.2,1.639,0.358,21.61,109.2136,22.87,23.75,39.78,0,110.9,13.21,23.71,316.2
"2010-07-30 01:03:30",26348,3.431,358.3,4.703,0.643,21.66,109.2136,22.87,23.76,39.33,0,110.9,13.21,23.71,320.3
"2010-07-30 01:04:00",26349,3.104,6.345,3.457,0.441,21.68,109.2136,22.87,23.75,39,0,110.9,13.21,23.71,328.3
"2010-07-30 01:04:30",26350,3.457,1.29,5.309,0.659,21.66,109.2145,22.88,23.76,39.21,0,110.9,13.21,23.71,323.3
"2010-07-30 01:05:00",26351,2.819,6.623,7.045,0.927,21.66,109.2159,22.88,23.77,39.11,0,110.9,13.21,23.71,328.6
"2010-07-30 01:05:30",26352,3.91,356.5,2.554,0.647,21.45,109.2148,22.88,23.76,40.28,0,110.9,13.21,23.71,318.5
"2010-07-30 01:06:00",26353,3.859,357.3,2.264,0.535,21.38,109.2007,22.84,23.75,41.06,0,110.9,13.21,23.67,319.3
"2010-07-30 01:06:30",26354,3.581,0.771,3.792,0.6,21.43,109.1799,22.79,23.7,40.78,0,110.9,13.22,23.62,322.8
"2010-07-30 01:07:00",26355,3.873,358.7,1.713,0.294,21.52,109.1672,22.76,23.68,40.47,0,110.9,13.22,23.59,320.7
"2010-07-30 01:07:30",26356,3.579,2.814,4.008,0.435,21.61,109.1585,22.73,23.67,39.97,0,110.9,13.22,23.56,324.8
"2010-07-30 01:08:00",26357,3.618,359.2,2.107,0.411,21.63,109.1779,22.78,23.65,39.84,0,110.9,13.22,23.61,321.2
"2010-07-30 01:08:30",26358,2.898,2.893,2.561,0.276,21.59,109.1799,22.79,23.67,39.96,0,110.9,13.22,23.62,324.9
"2010-07-30 01:09:00",26359,2.418,7.493,3.208,0.252,21.52,109.1799,22.79,23.66,40.35,0,110.9,13.22,23.62,329.5
"2010-07-30 01:09:30",26360,2.036,8.41,3.567,0.291,21.44,109.1762,22.78,23.66,40.8,0,110.9,13.22,23.61,330.4
"2010-07-30 01:10:00",26361,1.892,9.71,6.034,0.463,21.27,109.1495,22.71,23.65,41.72,0,110.9,13.22,23.54,331.7
"2010-07-30 01:10:30",26362,3.301,19.42,5.214,0.425,21.01,109.1217,22.64,23.6,43.11,0,110.9,13.22,23.47,341.4
"2010-07-30 01:11:00",26363,2.23,34.67,7.741,0.642,19.89,109.0446,22.44,23.52,47.4,0,110.9,13.22,23.27,356.7
"2010-07-30 01:11:30",26364,3.158,62.49,6.412,0.844,18.79,108.83,21.89,23.3,56.11,0,110.9,13.22,22.72,24.5
"2010-07-30 01:12:00",26365,6.579,77.08,4.295,0.785,18.74,108.5918,21.28,22.92,63.01,0,110.9,13.22,22.10,39.1
"2010-07-30 01:12:30",26366,8.16,84.5,3.527,0.463,18.88,108.4492,20.91,22.53,62.49,0,110.9,13.22,21.74,46.5
"2010-07-30 01:13:00",26367,8.32,81.9,3.832,0.173,19.05,108.3665,20.7,22.25,62.51,0,110.9,13.22,21.52,43.9
"2010-07-30 01:13:30",26368,9.1,80.6,1.483,0.299,19.22,108.2864,20.49,22.04,63.71,0,110.9,13.22,21.32,42.6
"2010-07-30 01:14:00",26369,8.79,79.27,3.377,0.432,19.43,108.2259,20.34,21.81,64.85,0,110.9,13.22,21.16,41.3
"2010-07-30 01:14:30",26370,7.309,80.2,7.252,0.714,19.52,108.1618,20.17,21.63,66.28,0,110.9,13.22,21.00,42.2
"2010-07-30 01:15:00",26371,4.583,68.58,5.479,0.912,19.67,108.0917,19.99,21.44,66.8,0,110.9,13.22,20.82,30.6
"2010-07-30 01:15:30",26372,3.466,42.76,11.96,0.598,20.42,108.0391,19.86,21.24,62.28,0,110.9,13.22,20.68,4.8
"2010-07-30 01:16:00",26373,4.676,28.45,2.253,0.155,21.25,108.0892,19.99,21.17,56.92,0,110.9,13.22,20.81,350.5
"2010-07-30 01:16:30",26374,4.865,16.83,5.783,0.152,21.36,108.1879,20.24,21.22,54.67,0,110.9,13.22,21.06,338.8
"2010-07-30 01:17:00",26375,4.461,6.865,5.045,0.499,21.62,108.2951,20.52,21.35,51.94,0,110.9,13.22,21.34,328.9
"2010-07-30 01:17:30",26376,4.589,17.16,1.415,0.311,21.81,108.4183,20.83,21.5,49.13,0,110.9,13.22,21.66,339.2
"2010-07-30 01:18:00",26377,3.654,13.8,2.93,0.51,21.59,108.5336,21.13,21.7,48.47,0,110.9,13.22,21.95,335.8
"2010-07-30 01:18:30",26378,2.749,9.39,3.107,0.246,21.41,108.6163,21.34,21.86,48.18,0,110.9,13.22,22.17,331.4
"2010-07-30 01:19:00",26379,2.471,6.478,4.404,0.203,21.35,108.6793,21.5,22.02,47.62,0,110.9,13.22,22.33,328.5
"2010-07-30 01:19:30",26380,2.731,359.1,3.974,0.5,21.06,108.711,21.58,22.15,48.59,0,110.9,13.22,22.41,321.1
"2010-07-30 01:20:00",26381,2.541,1.245,2.865,0.234,21.02,108.7333,21.64,22.24,48.44,0,110.9,13.22,22.47,323.2
"2010-07-30 01:20:30",26382,2.517,3.567,3.199,0.276,20.98,108.7409,21.66,22.29,48.47,0,110.9,13.22,22.49,325.6
"2010-07-30 01:21:00",26383,2.298,5.526,4.051,0.288,21.05,108.7411,21.66,22.34,47.98,0,110.9,13.22,22.49,327.5
"2010-07-30 01:21:30",26384,1.873,6.492,6.254,0.361,20.96,108.7437,21.67,22.38,48.04,0,110.9,13.21,22.50,328.5
"2010-07-30 01:22:00",26385,1.438,10.57,8.31,0.618,20.57,108.7423,21.66,22.41,49.37,0,110.9,13.21,22.49,332.6
"2010-07-30 01:22:30",26386,2.975,34.78,6.802,0.338,19.3,108.6629,21.46,22.37,58.15,0,110.9,13.21,22.29,356.8
"2010-07-30 01:23:00",26387,3.667,42.46,3.146,0.143,19.03,108.4934,21.03,22.15,62.37,0,110.9,13.21,21.85,4.5
"2010-07-30 01:23:30",26388,3.642,42.08,1.652,0.169,19.28,108.3465,20.65,21.88,63.83,0,110.9,13.21,21.47,4.1
"2010-07-30 01:24:00",26389,3.633,31.49,7.624,0.382,20,108.2577,20.42,21.65,61.55,0,110.9,13.22,21.24,353.5
"2010-07-30 01:24:30",26390,4.787,20.86,1.278,0.176,20.58,108.2579,20.42,21.55,56.23,0,110.9,13.22,21.24,342.9
"2010-07-30 01:25:00",26391,4.62,19.26,2.156,0.197,21.21,108.3075,20.55,21.55,52.9,0,110.9,13.22,21.37,341.3
"2010-07-30 01:25:30",26392,4.877,23.28,1.465,0.256,21.39,108.3989,20.78,21.63,50.39,0,110.9,13.22,21.61,345.3
"2010-07-30 01:26:00",26393,4.853,23.76,2.004,0.324,21.43,108.4911,21.02,21.76,48.48,0,110.9,13.22,21.85,345.8
"2010-07-30 01:26:30",26394,4.718,19,2.766,0.573,20.96,108.5552,21.18,21.91,50.33,0,110.9,13.23,22.01,341.0
"2010-07-30 01:27:00",26395,4.738,24.55,2.998,0.561,20.46,108.5724,21.23,21.97,52.28,0,110.9,13.23,22.05,346.5
"2010-07-30 01:27:30",26396,4.515,26.85,3.049,0.478,20.23,108.542,21.15,21.96,54.29,0,110.9,13.23,21.98,348.9
"2010-07-30 01:28:00",26397,5.556,22.94,4.911,0.64,20.25,108.4995,21.04,21.93,54.82,0,110.9,13.23,21.87,344.9
"2010-07-30 01:28:30",26398,5.683,30.29,2.937,0.583,20.42,108.47,20.97,21.87,55.19,0,110.9,13.23,21.79,352.3
"2010-07-30 01:29:00",26399,4.882,31.02,1.813,0.324,20.57,108.4503,20.92,21.84,55.6,0,110.9,13.22,21.74,353.0
"2010-07-30 01:29:30",26400,4.924,30.72,1.907,0.32,20.65,108.4425,20.89,21.83,55.31,0,110.9,13.22,21.72,352.7
"2010-07-30 01:30:00",26401,6.075,33.38,1.669,0.639,20.65,108.4444,20.9,21.82,55.71,0,110.9,13.23,21.72,355.4
"2010-07-30 01:30:30",26402,5.735,32.62,1.281,0.405,20.78,108.4478,20.91,21.83,55.01,0,110.9,13.23,21.73,354.6
"2010-07-30 01:31:00",26403,5.779,32.92,1.426,0.493,20.76,108.4672,20.96,21.81,56.01,0,110.9,13.23,21.78,354.9
"2010-07-30 01:31:30",26404,5.22,31.21,1.971,0.466,20.83,108.4709,20.97,21.83,55.07,0,110.9,13.23,21.79,353.2
"2010-07-30 01:32:00",26405,6.989,34.63,1.311,0.505,20.85,108.4711,20.97,21.86,55.75,0,110.9,13.23,21.79,356.6
"2010-07-30 01:32:30",26406,7.696,36.41,1.152,0.314,20.89,108.4751,20.98,21.88,56.02,0,110.9,13.23,21.80,358.4
"2010-07-30 01:33:00",26407,7.534,37.89,2.332,0.359,20.8,108.4824,21,21.89,56.6,0,110.9,13.23,21.82,359.9
"2010-07-30 01:33:30",26408,6.916,35.74,1.935,0.585,20.92,108.4995,21.04,21.9,55.65,0,110.8,13.23,21.87,357.7
"2010-07-30 01:34:00",26409,7.273,36.84,1.293,0.409,20.97,108.5052,21.06,21.93,55.46,0,110.9,13.23,21.88,358.8
"2010-07-30 01:34:30",26410,7.317,36.03,0.903,0.344,21.07,108.5103,21.07,21.94,54.36,0,110.8,13.23,21.89,358.0
"2010-07-30 01:35:00",26411,7.687,39.11,1.497,0.236,20.99,108.5359,21.13,21.98,54.28,0,110.8,13.23,21.96,1.1
"2010-07-30 01:35:30",26412,7.855,43.88,1.987,0.155,20.78,108.5414,21.15,22,55.54,0,110.8,13.22,21.97,5.9
"2010-07-30 01:36:00",26413,8.13,48.83,1.564,0.263,20.51,108.5414,21.15,22.03,57.57,0,110.8,13.22,21.97,10.8
"2010-07-30 01:36:30",26414,6.874,47.04,2.829,0.498,20.19,108.5204,21.09,22,58.02,0,110.8,13.22,21.92,9.0
"2010-07-30 01:37:00",26415,7.071,50.09,2.517,0.311,20.3,108.4826,21,21.96,58.56,0,110.8,13.22,21.82,12.1
"2010-07-30 01:37:30",26416,7.115,52.79,1.536,0.224,20.25,108.4494,20.91,21.89,59.08,0,110.8,13.22,21.74,14.8
"2010-07-30 01:38:00",26417,7.279,51.11,1.338,0.195,20.3,108.4145,20.82,21.83,59.63,0,110.8,13.22,21.65,13.1
"2010-07-30 01:38:30",26418,6.667,53.64,2.445,0.263,20.08,108.3868,20.75,21.77,60.11,0,110.8,13.22,21.58,15.6
"2010-07-30 01:39:00",26419,7.146,54.37,1.396,0.315,20.25,108.3481,20.65,21.69,60.67,0,110.9,13.22,21.48,16.4
"2010-07-30 01:39:30",26420,7.256,55.39,1.168,0.179,20.39,108.3148,20.57,21.64,61.22,0,110.8,13.22,21.39,17.4
"2010-07-30 01:40:00",26421,7.211,57.33,1.042,0.168,20.42,108.301,20.53,21.58,61.39,0,110.8,13.22,21.36,19.3
"2010-07-30 01:40:30",26422,7.509,60.61,0.997,0.227,20.56,108.2798,20.48,21.54,61.25,0,110.8,13.22,21.30,22.6
"2010-07-30 01:41:00",26423,7.936,61.03,0.944,0.144,20.55,108.2784,20.47,21.51,59.36,0,110.8,13.23,21.30,23.0
"2010-07-30 01:41:30",26424,8.23,61.6,0.903,0.158,20.6,108.2808,20.48,21.47,58.42,0,110.8,13.23,21.30,23.6
"2010-07-30 01:42:00",26425,8.39,58.64,0.974,0.142,20.69,108.2835,20.49,21.47,57.64,0,110.8,13.23,21.31,20.6
"2010-07-30 01:42:30",26426,8.27,57.72,0.743,0.15,20.68,108.2925,20.51,21.46,57.67,0,110.8,13.23,21.33,19.7
"2010-07-30 01:43:00",26427,7.858,54.9,0.913,0.223,20.73,108.3103,20.56,21.46,57.55,0,110.8,13.23,21.38,16.9
"2010-07-30 01:43:30",26428,7.66,51.85,1.318,0.119,20.73,108.3252,20.59,21.47,57.25,0,110.8,13.23,21.42,13.8
"2010-07-30 01:44:00",26429,7.715,47.92,1.019,0.086,20.86,108.3319,20.61,21.5,56.59,0,110.8,13.23,21.44,9.9
"2010-07-30 01:44:30",26430,7.838,46.06,1.1,0.287,20.83,108.36,20.68,21.51,56.49,0,110.8,13.23,21.51,8.1
"2010-07-30 01:45:00",26431,8.05,44.64,1.118,0.223,20.85,108.3759,20.72,21.55,56.26,0,110.8,13.23,21.55,6.6
"2010-07-30 01:45:30",26432,7.87,41.72,1.249,0.064,20.92,108.399,20.78,21.6,55.76,0,110.8,13.23,21.61,3.7
"2010-07-30 01:46:00",26433,7.598,39.39,0.662,0.047,20.99,108.4268,20.85,21.64,55.12,0,110.8,13.23,21.68,1.4
"2010-07-30 01:46:30",26434,7.611,37.31,0.548,0.078,21.05,108.4508,20.92,21.7,54.66,0,110.8,13.23,21.74,359.3
"2010-07-30 01:47:00",26435,7.294,36.58,0.208,0.137,20.97,108.4691,20.96,21.73,54.42,0,110.8,13.23,21.79,358.6
"2010-07-30 01:47:30",26436,7.486,35.94,0.323,0.101,20.89,108.4972,21.04,21.78,54.73,0,110.8,13.23,21.86,357.9
"2010-07-30 01:48:00",26437,7.263,35.57,0.513,0.131,20.92,108.5006,21.04,21.84,54.47,0,110.8,13.23,21.87,357.6
"2010-07-30 01:48:30",26438,6.927,34.44,1.086,0.404,20.99,108.5191,21.09,21.86,54.49,0,110.8,13.23,21.92,356.4